Location: Caixon
(43.4106°N, 0.0273°E)
Time: 20:57:21
(UTC+00:00)

Cosmos 1378 Rocket - Pass Details

Date: 16 October 2021
Orbit: 600 x 628 km, 82.5° (Epoch: 07 December)

Event Time Altitude Azimuth Distance (km) Brightness Sun altitude
Rises 05:31:45 0° 209° (SSW) 2,870 6.7 -8.6°
Reaches altitude 10° 05:34:07 10° 219° (SW) 1,975 5.8 -8.2°
Maximum altitude 05:38:06 34° 285° (WNW) 1,033 4.2 -7.5°
Drops below altitude 10° 05:42:09 10° 350° (N) 2,004 6.0 -6.8°
Sets 05:44:35 0° 0° (N) 2,919 7.0 -6.3°
